Home > Weather > Kfar Saba > Past weeks

Flag for Israel Past Weather in Kfar Saba, Israel — Yesterday and Last 2 Weeks

Now
82 °F

Scattered clouds.


Feels Like: 88 °F
Forecast: 76 / 89 °F
Wind: 6 mph from South

Location: Dov Airport

Current Time: Jul 30, 2016 at 8:34:27 AM

Latest Report: Jul 30, 2016 at 7:50 AM


Visibility: N/A

Pressure: 29.71 "Hg

Humidity: 74%

Dew Point: 73 °F

Location of Kfar SabaLocation

Past Weather in Kfar Saba — Graph

°F

Kfar Saba Temperature Yesterday

Maximum temperature yesterday: 86 °F (at 11:50 AM)
Minimum temperature yesterday: 75 °F (at 5:50 AM)
Average temperature yesterday: 83 °F

High & Low Weather Summary for the Past Weeks

 TemperatureHumidityPressure
High88 °F (Jul 18, 1:50 PM)89% (Jul 26, 4:50 AM)29.89 "Hg (Jul 26, 4:50 AM)
Low75 °F (Jul 16, 6:00 AM)49% (Jul 19, 3:50 PM)29.65 "Hg (Jul 19, 5:50 AM)
Average83 °F67%29.74 "Hg
* Reported Jul 15 6:50 AM — Jul 30 6:50 AM, Kfar Saba, Weather by CustomWeather, © 2016

Note: Actual official high and low records may vary slightly from our data, if they occured in-between our weather recording intervals... More about our weather records

Advertising

Kfar Saba Weather History for the Previous 24 Hours

Scroll right to see more
 ConditionsComfort  
Time TempWeatherWind HumidityBarometerVisibility
6:50 AM
Sat, Jul 30
81 °FPassing clouds.5 mph79%29.68 "HgN/A
5:50 AM81 °FPassing clouds.5 mph79%29.68 "HgN/A
4:50 AM81 °FPassing clouds.2 mph79%29.68 "HgN/A
4:00 AM81 °FPassing clouds.2 mph79%29.68 "HgN/A
9:50 PM
Fri, Jul 29
82 °FPassing clouds.6 mph74%29.68 "HgN/A
8:50 PM82 °FPassing clouds.6 mph79%29.68 "HgN/A
7:50 PM84 °FPartly sunny.8 mph74%29.65 "HgN/A
6:50 PM84 °FScattered clouds.9 mph74%29.65 "HgN/A
5:50 PM86 °FScattered clouds.10 mph70%29.65 "HgN/A
3:50 PM86 °FPassing clouds.10 mph66%29.68 "HgN/A
2:50 PM86 °FPassing clouds.10 mph66%29.68 "HgN/A
1:50 PM86 °FPassing clouds.10 mph62%29.71 "HgN/A
12:50 PM86 °FPassing clouds.10 mph62%29.71 "HgN/A
11:50 AM86 °FPassing clouds.9 mph62%29.71 "HgN/A
10:50 AM84 °FPassing clouds.9 mph66%29.71 "HgN/A
9:50 AM84 °FPassing clouds.8 mph66%29.71 "HgN/A
8:50 AM82 °FPassing clouds.7 mph70%29.71 "HgN/A
Weather by CustomWeather, © 2016

See weather overviewHow to use our weather pages